Regional Weather Roundup
Issued by NWS Wakefield, VA

Home | Current Version | Previous Version | Graphics & Text | Print | Product List | Glossary On
Versions: 1 2 3 4 5 6 7 8 9 10 11 12 13 14 15 16 17 18 19 20 21 22 23 24 25 26 27 28 29 30 31 32 33 34 35 36 37 38 39 40 41 42 43 44 45 46 47 48 49 50
000
ASUS41 KAKQ 230810
RWRAKQ

REGIONAL WEATHER ROUNDUP
NATIONAL WEATHER SERVICE WAKEFIELD VA
400 AM EDT TUE SEP 23 2014

Note: "fair" indicates few or no clouds below 12,000 feet with no
significant weather and/or obstructions to visibility. * = Denotes
station may not report precipitation (e.g., rain,snow,etc.),
thunder or fog.

VAZ042-051-052>054-056-230900-
NORTHERN VIRGINIA

CITY           SKY/WX    TMP DP  RH WIND       PRES   REMARKS
WASH NATIONAL  PTCLDY    57  41  55 NW10      30.28R
DULLES         PTCLDY    49  41  74 N5        30.27R
FORT BELVOIR   PTCLDY    55  41  59 N6        30.27R
QUANTICO       PTCLDY    56  41  57 N10       30.27S
FREDERICKSBRG* PTCLDY    55  45  70 N3        30.25S
STAFFORD*      PTCLDY    50  44  79 CALM      30.30R
WARRENTON      PTCLDY    46  46  98 N3        30.26S
CULPEPER*      PTCLDY    46  43  87 CALM      30.27S
MANASSAS*      PTCLDY    48  45  87 N5        30.27S
LEESBURG*      CLEAR     46  45  93 CALM      30.28S
WINCHESTER     CLEAR     46  41  81 NW3       30.28R
FRONT ROYAL*   MOSUNNY   43  41  93 CALM      30.27S
LURAY*         MOSUNNY   45  45 100 CALM      30.27S
$$

VAZ048-049-060>072-079>083-230900-
CENTRAL AND SOUTH CENTRAL VIRGINIA...AND NORTH CENTRAL NORTH CAROLINA

CITY           SKY/WX    TMP DP  RH WIND       PRES   REMARKS
RICHMOND       MOCLDY    56  44  64 N5        30.25R
CHESTERFIELD*  MOSUNNY   57  37  47 NE6       30.26R
PETERSBURG*    PTCLDY    56  44  63 NE7       30.24S
HANOVER        MOCLDY    53  47  79 CALM      30.27R
TAPPAHANNOCK*  MOCLDY    55  42  61 CALM      30.25S
CHARLOTTSVILLE PTCLDY    52  44  74 E3        30.24S
ORANGE*        PTCLDY    52  43  71 N7        30.26S
LOUISA*        MOCLDY    52  45  76 NE3       30.24R
FARMVILLE*     CLOUDY    54  45  71 N5        30.23S
CREWE*         MOSUNNY   56  44  64 N3        30.24S
FORT PICKETT*  MOSUNNY   53  46  77 NE8       30.23S
LUNENBURG*     MOSUNNY   57  47  69 N5        30.23R
SOUTH HILL*    PTCLDY    57  48  72 N8        30.27R
LAWRENCEVILLE* MOSUNNY   55  49  80 N3        30.22S
ROANOKE RAPIDS MOSUNNY   59  48  67 NE12      30.20R
RALEIGH        CLOUDY    62  49  62 NE9       30.19R
$$

VAZ088>098-230900-
SOUTHEAST VIRGINIA

CITY           SKY/WX    TMP DP  RH WIND       PRES   REMARKS
NORFOLK        CLOUDY    64  49  57 NE21G26   30.20R
VIRGINIA BEACH CLOUDY    63  48  58 N14G25    30.19R
NORFOLK NAVAL  CLOUDY    65  50  58 NE21      30.22R
WEST POINT*    MOCLDY    58  46  63 CALM      30.25S
NEWPORT NEWS   MOCLDY    63  47  55 N7        30.22R
LANGLEY AFB    CLOUDY    64  52  65 N12       30.21R
FORT EUSTIS    MOCLDY    61  43  52 N7        30.21R
WILLIAMSBURG*  MOCLDY    59  48  67 N3        30.24R
HR EXEC AP*    CLOUDY    63  52  67 NE7       30.22S
FRANKLIN*      CLOUDY    59  48  67 N7        30.22S
WAKEFIELD      MOCLDY    59  46  62 VRB5      30.23R
$$

VAZ020-022-025-037-045-230900-
WEST CENTRAL AND SOUTHWEST VIRGINIA

CITY           SKY/WX    TMP DP  RH WIND       PRES   REMARKS
STAUNTON*      PTCLDY    45  41  86 NW3       30.27F
HOT SPRINGS VA PTCLDY    43  28  56 NW3       30.28S
LYNCHBURG      CLOUDY    54  47  77 NE5       30.26R
DANVILLE       CLOUDY    58  48  69 NE7       30.23R
SOUTH BOSTON*  NOT AVBL
MARTINSVILLE   CLOUDY    55  52  92 N3        30.25S
ROANOKE        MOCLDY    53  44  71 N8        30.27S
BLACKSBURG     MOCLDY    46  46 100 CALM      30.27F
DUBLIN*        MOCLDY    48  47  95 CALM      30.26F
MARION*        PTCLDY    43  42  95 CALM      30.29S
HILLSVILLE*    MOCLDY    47  44  92 N3        30.25S
RICHLANDS*     SUNNY     49  47  91 E3        30.26S
WISE*          CLEAR     46  45  93 CALM      30.27S
ABINGDON*      CLEAR     47  45  92 E5        30.25F
$$

MDZ021>025-VAZ099-100-230900-
SOUTHERN MARYLAND AND THE DELMARVA PENINSULA

CITY           SKY/WX    TMP DP  RH WIND       PRES   REMARKS
PATUXENT RIVER PTCLDY    57  44  62 N8        30.24R
BAY BRIDGE APT   N/A     57  43  58 N6        30.25R
LEONARDTOWN    MOCLDY    54  43  66 CALM      30.26R
DOVER          MOCLDY    50  43  76 N6        30.21R
GEORGETOWN     PTCLDY    52  43  71 NW3       30.24R
EASTON         MOCLDY    55  47  74 CALM      30.28R
CAMBRIDGE      PTCLDY    57  45  62 NE5       30.24R
SALISBURY      PTCLDY    54  44  69 N7        30.23R
OCEAN CITY     PTCLDY    52  45  77 NW6       30.22R
WALLOPS ISLAND PTCLDY    55  46  71 N9        30.23R
ACCOMACK*      MOCLDY    55  43  62 N9        30.22R
$$

NCZ012>017-030>032-230900-
EASTERN NORTH CAROLINA

CITY           SKY/WX    TMP DP  RH WIND       PRES   REMARKS
ELIZABETH CITY CLOUDY    64  55  72 N13       30.18S
AHOSKIE*       MOCLDY    60  49  68 N10G16    30.20R
EDENTON*       CLOUDY    62  56  83 NE6       30.18R
CURRITUCK*     CLOUDY    67  51  55 N13       30.19R
KILL DEVIL HLS CLOUDY    69  54  60 NE12G20   30.15R
MANTEO         CLOUDY    68  55  62 NE16      30.16S
CAPE HATTERAS  CLOUDY    68  58  70 NE9G20    30.13S
TARBORO*       CLOUDY    63  55  77 N6        30.20R
GOLDSBORO      CLOUDY    65  63  95 NE5       30.13S
WASHINGTON     CLOUDY    63  58  86 NE5       30.16S
GREENVILLE     CLOUDY    63  59  88 N8        30.17S
NEW BERN       CLOUDY    68  61  78 NE7       30.15S
WILMINGTON     CLOUDY    66  63  90 N6        30.10R
$$

VAZ048-230900-
ELSEWHERE

CITY           SKY/WX    TMP DP  RH WIND       PRES   REMARKS
HARRISBURG PA  CLEAR     49  42  77 NW3       30.25R
BALTIMORE      PTCLDY    50  44  80 W5        30.25R
ANNAPOLIS      PTCLDY    57  47  69 MISG      30.26R
ANDREWS AFB    PTCLDY    53  42  66 N12       30.25R
WILMINGTON DE  CLEAR     48  43  82 NW5       30.24R
PHILADELPHIA   PTCLDY    52  41  66 NW3       30.24S
WILDWOOD NJ*   PTCLDY    52  39  62 NE5       30.24R
ATLANTIC CITY  MOCLDY    48  44  86 NW3       30.22R
HENDERSON NC   CLOUDY    59  46  63 NE9       30.21R
GREENSBORO     CLOUDY    60  49  66 NE15      30.19S
ROCKY MOUNT    CLOUDY    63  52  67 NE13      30.17S
FAYETTEVILLE   CLOUDY    64  60  87 NE8       30.12F
CHARLOTTE      CLOUDY    61  49  64 N10       30.17F
$$

VAZ100-230900-
MARINE

STATION/POSITION TIME  TEMP    WIND        PRES    WAVE   SWELL
                       AIR SEA DIR/SP/G            HT/PER HT/PER
                 (UTC) (F)     (DEG/KT/KT) (MB)    (FT/S) (FT/S)
44066 TX TWR #4  0800   60 70  360/ 12/ 14 1022.1R   5/ 9   3/ 9
CAPE MAY NJ      0800   56 72   50/  4/  6 1022.9R
LEWES DE         0800   60 69   20/ 17/ 21 1023.4R
15NM E FENWICK I 0800   62 71              1022.5R   4/ 5
OCEAN-CITY-INLET 0800   59 70  360/  9/ 11 1022.7R
WACHAPREAGUE VA  0800   57 72  360/  8/ 10 1023.2R
THOMAS POINT MD  0800   58 72  330/ 12/ 14 1025.4R
GOOSES REEF MD   0800   61 73  350/ 16/ 19 1024.4R   2/ 3
COVE POINT MD    0800   60     350/ 17/ 21 1023.8R
SOLOMONS ISLAND  0800      74                N/A
BISHOPS HEAD MD  0800   59 68   20/  9/ 15 1023.6R
PINEY POINT MD   0800          360/ 13/ 15   N/A
POTOMAC MD       0800   60 74  360/ 10/ 14 1023.2S   1/ 3
CAMBRIDGE MD     0800   59 72   10/  9/ 11 1023.9R
LEWISETTA VA     0800   60 72  360/ 11/ 16 1023.5F
RAPPAHANNOCK LGT 0800           30/ 23/ 25 1023.4S
STINGRAY PT      0800   64 74   30/ 17/ 21   N/A     3/ 3
YORK RVR RNG VA  0800   64     360/ 16/ 18 1022.5R
YORKTOWN VA      0800   61 75  340/ 11/ 13 1023.0R
JAMESTOWN VA     0800   59 75   20/  4/  6   N/A     0
DOMINION TERM VA 0800   64      50/  3/  5 1023.1R
KIPTOPEKE VA     0800      77   40/  6/ 13   N/A
CHES BAY BRIDGE  0800   64 74   10/ 20/ 24 1022.4R
CAPE HENRY VA    0800   64      20/ 23/ 26 1021.6R
CHESAPEAKE LGHT  0700   66      20/ 23/ 26 1022.1R
WILLOUBY STN VA  0800   65      50/ 19/ 22 1021.6R
S CRANEY ISL VA  0800           10/ 16/ 19 1022.5S
CAPE HENRY BUOY  0700      74                N/A     4/ 5
1ST LANDING BUOY 0800   65 74   30/ 19/ 23 1022.6R   3/ 3
CAPE CHARLES BUO 0800      74                N/A     5/ 5   2/ 8
OFFSHORE WE BUOY 0700      73                N/A     5/ 5   2/15
64NM E OF VA BCH 0800   70 75   10/ 17/ 21 1020.7R   4/ 5   2/ 8
DUCK PIER NC     0800   70 74   20/ 19/ 22 1020.7R
44100 DUCK FRF   0700      74                N/A     5/ 5
44056 DUCK FRF   0700                        N/A     4/ 5
OREGON INLET NC  0800   70 75   20/ 16/ 21 1020.4F
DIAMOND SHLS NC  0800   73      20/ 17/ 21 1019.6R   4/ 5   2/12
CAPE LOOKOUT NC  0800   73      40/ 21/ 24 1019.3S
$$


USA.gov is the U.S. government's official web portal to all federal, state and local government web resources and services.